Location: Ostrava
(49.8330°N, 18.2830°E)
Time: 11:26:37
(UTC+02:00)

Transit 2A - All Passes

Search period start: 31 July 2014 00:00
Search period end: 10 August 2014 00:00
Orbit: 603 x 960 km, 66.7° (Epoch: 30 July)

Date Brightness Start Highest point End Pass type
(mag) Time Alt. Az. Time Alt. Az. Time Alt. Az.
31 Jul - 00:10:04 10° S 00:14:16 38° ESE 00:18:19 10° NE visible
31 Jul - 01:53:23 10° WSW 01:57:28 34° NW 02:01:28 10° NNE visible
31 Jul - 03:40:32 10° NW 03:41:59 11° NNW 03:43:27 10° N visible
31 Jul - 07:08:51 10° NNW 07:12:17 21° NE 07:15:51 10° E daylight
31 Jul - 08:51:28 10° NW 08:55:59 83° SW 09:00:49 10° SSE daylight
31 Jul - 10:36:32 10° W 10:38:31 13° WSW 10:40:34 10° SW daylight
31 Jul - 23:37:07 10° S 23:40:54 26° ESE 23:44:34 10° ENE visible
01 Aug - 01:19:33 10° WSW 01:23:53 46° NW 01:28:05 10° NNE visible
01 Aug - 03:06:00 10° NW 03:08:09 13° NNW 03:10:18 10° N visible
01 Aug - 06:35:33 10° NNW 06:38:33 17° NNE 06:41:39 10° ENE daylight
01 Aug - 08:18:00 10° NNW 08:22:29 71° NE 08:27:18 10° SE daylight
01 Aug - 10:02:06 10° WNW 10:05:15 18° WSW 10:08:32 10° SSW daylight
01 Aug - 23:04:28 10° SSE 23:07:35 19° ESE 23:10:38 10° ENE visible
02 Aug - 00:45:52 10° SW 00:50:20 64° NW 00:54:40 10° NNE visible
02 Aug - 02:31:39 10° WNW 02:34:22 16° NNW 02:37:05 10° N visible
02 Aug - 06:02:18 10° N 06:04:47 15° NNE 06:07:20 10° ENE daylight
02 Aug - 07:44:35 10° NNW 07:48:57 52° NE 07:53:39 10° SE daylight
02 Aug - 09:28:08 10° WNW 09:31:55 26° WSW 09:35:56 10° S daylight
02 Aug - 22:32:22 10° SE 22:34:19 13° ESE 22:36:14 10° E visible
03 Aug - 00:12:19 10° SW 00:16:50 90° NW 00:21:13 10° NE visible
03 Aug - 01:57:25 10° W 02:00:37 19° NNW 02:03:48 10° NNE visible
03 Aug - 05:29:05 10° N 05:30:58 12° NNE 05:32:53 10° NE daylight
03 Aug - 07:11:11 10° NNW 07:15:23 38° NE 07:19:51 10° ESE daylight
03 Aug - 08:54:23 10° NW 08:58:33 36° WSW 09:03:02 10° S daylight
03 Aug - 23:38:55 10° SSW 23:43:23 63° ESE 23:47:42 10° NE visible
04 Aug - 01:23:18 10° W 01:26:55 24° NW 01:30:30 10° NNE visible
04 Aug - 04:56:01 10° N 04:57:07 11° NNE 04:58:14 10° NNE daylight
04 Aug - 06:37:49 10° NNW 06:41:46 30° NE 06:45:56 10° ESE daylight
04 Aug - 08:20:45 10° NW 08:25:09 52° WSW 08:29:55 10° SSE daylight
04 Aug - 23:05:41 10° S 23:09:58 43° ESE 23:14:06 10° NE visible
05 Aug - 00:49:18 10° WSW 00:53:15 31° NW 00:57:09 10° NNE visible
05 Aug - 02:36:44 10° NNW 02:37:52 11° NNW 02:39:01 10° N visible
05 Aug - 06:04:29 10° NNW 06:08:06 24° NE 06:11:54 10° E daylight
05 Aug - 07:47:12 10° NW 07:51:43 73° WSW 07:56:36 10° SSE daylight
05 Aug - 09:32:55 10° W 09:34:12 11° WSW 09:35:30 10° WSW daylight
05 Aug - 22:32:39 10° S 22:36:36 30° ESE 22:40:25 10° NE visible
06 Aug - 00:15:26 10° WSW 00:19:39 41° NW 00:23:47 10° NNE visible
06 Aug - 02:02:08 10° NW 02:04:02 13° NNW 02:05:56 10° N visible
06 Aug - 05:31:11 10° NNW 05:34:24 19° NNE 05:37:44 10° ENE daylight
06 Aug - 07:13:42 10° NW 07:18:14 81° NE 07:23:09 10° SE daylight
06 Aug - 08:58:04 10° WNW 09:00:56 16° WSW 09:03:55 10° SSW daylight
06 Aug - 21:59:53 10° SSE 22:03:16 21° ESE 22:06:33 10° ENE visible
06 Aug - 23:41:42 10° SW 23:46:05 56° NW 23:50:23 10° NNE visible
07 Aug - 01:27:43 10° WNW 01:30:13 15° NNW 01:32:44 10° N visible
07 Aug - 04:57:54 10° N 05:00:38 16° NNE 05:03:28 10° ENE daylight
07 Aug - 06:40:15 10° NNW 06:44:43 59° NE 06:49:32 10° SE daylight
07 Aug - 08:23:59 10° WNW 08:27:37 23° WSW 08:31:28 10° SSW daylight
07 Aug - 21:27:31 10° SE 21:29:58 15° ESE 21:32:23 10° ENE visible
07 Aug - 23:08:06 10° SW 23:12:34 79° NW 23:16:56 10° NE visible
08 Aug - 00:53:26 10° WNW 00:56:27 18° NNW 00:59:28 10° NNE visible
08 Aug - 04:24:40 10° N 04:26:51 13° NNE 04:29:05 10° NE visible
08 Aug - 06:06:51 10° NNW 06:11:10 43° NE 06:15:47 10° ESE daylight
08 Aug - 07:50:10 10° NW 07:54:16 32° WSW 07:58:39 10° S daylight
08 Aug - 22:34:38 10° SSW 22:39:06 73° ESE 22:43:26 10° NE visible
09 Aug - 00:19:17 10° W 00:22:44 22° NW 00:26:10 10° NNE visible
09 Aug - 03:51:30 10° N 03:53:01 11° NNE 03:54:33 10° NE visible
09 Aug - 05:33:28 10° NNW 05:37:34 33° NE 05:41:55 10° ESE daylight
09 Aug - 07:16:30 10° NW 07:20:52 45° WSW 07:25:37 10° S daylight
09 Aug - 22:01:20 10° SSW 22:05:40 50° ESE 22:09:52 10° NE visible
09 Aug - 23:45:14 10° W 23:49:03 28° NW 23:52:50 10° NNE visible
